Powrót do katalogu

FENGYUN 1C DEB

AktywnySSO
NORAD 30876·DEBRIS·🇨🇳 China

Wystrzelony May 10, 1999 z Taiyuan Satellite Launch Center

Loading…

Następne Przeloty (najbliższe 24 godziny)

TLE

ŚwieżeSource: Space-Track

Epoka: Sep 14, 2026, 10:06 UTC

1 30876U 99025AXN 26257.42105687  .00000193  00000-0  15886-3 0  9998
2 30876  98.8396 237.4965 0066045 232.3669 281.8340 13.99379661995651

Śledź FENGYUN 1C DEB w czasie rzeczywistym z AllMySat

Download on the App Store